Vorticity
10 10 9 8 8 8 8 9 9 8 8 7 8 8 7 6 6 6 7 7 8 8 9 9 9 9 9 9 9 9 9 9 9 8 9 9 9 9 9 9 9 8 7 7 6 6 6 7 7 7 7 6 7 7 6 7 6 6 8 5 8 14 2 -8 -2 3 2 3 6 7 8 7 5 7 8 9 8 8 10 6 2 4 10 9 8 9 5 5
11 11 10 10 9 9 8 9 10 10 9 9 9 9 9 8 7 7 7 7 7 7 8 8 10 10 10 10 9 10 9 9 9 9 10 10 9 10 10 10 9 7 6 6 6 7 6 6 7 7 7 6 7 7 7 7 7 7 6 7 12 7 -6 -6 4 8 9 7 6 8 7 6 8 8 8 10 7 8 10 10 9 7 5 1 7 11 5 6
11 11 10 11 11 10 10 9 9 10 10 10 10 10 11 11 10 9 9 9 8 8 8 8 9 10 11 11 11 11 11 11 10 10 10 10 11 11 11 10 9 7 6 6 6 6 6 7 6 7 7 7 7 7 8 8 8 7 6 10 8 -3 0 9 7 5 5 4 7 8 8 10 8 7 10 9 9 15 11 8 12 7 2 6 16 18 9 7
11 11 11 10 11 11 11 10 10 10 10 10 11 11 11 11 10 10 10 10 10 11 11 10 10 11 11 12 12 13 12 11 10 10 10 11 12 11 12 11 8 6 5 6 6 7 7 7 7 7 7 7 8 7 8 8 8 8 8 7 1 1 9 9 5 8 9 8 9 8 9 9 6 9 11 9 14 22 12 3 7 8 6 8 11 13 9 7
11 12 12 11 11 11 11 11 11 11 11 10 10 11 11 10 9 9 8 9 10 11 12 13 12 12 12 12 12 13 13 11 11 12 11 11 11 11 11 9 8 7 6 6 7 8 8 7 8 7 8 8 8 8 8 8 8 8 10 6 4 8 8 5 8 10 8 9 9 9 10 7 9 12 9 12 10 -3 -7 -0 11 14 8 4 7 13 11 4
11 11 12 12 12 12 12 12 12 11 11 10 10 11 11 11 10 9 8 8 8 9 10 12 13 13 12 13 13 12 12 11 12 14 12 12 12 11 10 8 7 5 5 7 7 8 8 9 8 7 8 9 9 9 9 10 10 9 9 7 7 6 4 6 8 7 9 10 9 9 10 8 11 11 6 14 7 -11 -5 6 9 11 8 9 13 10 2 -3
9 9 10 11 12 12 12 12 12 11 11 11 11 11 11 12 11 11 10 10 10 9 8 7 9 12 14 13 12 12 12 11 11 12 15 15 13 11 9 8 5 4 5 6 7 8 9 8 8 9 9 9 9 10 10 10 10 9 8 7 7 5 6 8 8 9 10 8 9 10 9 9 9 8 8 11 7 5 12 13 14 18 10 5 3 -2 -2 1
8 8 8 10 11 11 12 12 12 12 11 11 11 11 11 11 12 11 11 11 11 11 12 10 4 3 8 13 14 11 11 12 9 5 8 11 14 14 12 10 8 6 6 7 8 8 8 9 9 9 9 9 9 10 12 11 10 9 7 7 6 7 7 8 8 8 8 7 9 8 7 9 8 8 10 9 8 9 13 15 19 16 5 3 4 5 5 5
7 7 7 8 9 10 11 12 12 12 12 11 11 11 10 11 11 11 11 11 10 10 12 16 12 3 -3 -0 9 15 13 12 11 7 4 2 5 9 13 13 11 10 9 9 9 8 9 9 9 9 8 9 9 9 10 9 8 8 7 7 6 8 8 7 7 6 8 9 8 9 8 9 8 8 9 9 10 13 14 13 7 1 4 10 9 8 7 5
7 7 7 8 8 9 10 11 12 13 13 13 13 12 11 10 10 11 10 10 10 9 9 11 17 17 8 -5 -5 7 15 15 14 14 14 10 5 3 5 8 8 8 7 8 8 9 8 7 9 10 8 8 8 7 7 7 7 7 8 9 8 8 7 6 7 7 9 8 8 10 8 7 8 9 11 8 12 19 16 5 -2 2 10 10 3 4 6 7
6 6 6 7 7 8 9 10 12 12 13 14 14 14 13 12 11 11 11 9 9 8 8 7 8 15 19 12 -3 -8 2 11 10 10 12 14 12 9 7 6 7 6 6 7 7 8 8 9 9 9 9 10 10 9 9 8 8 9 9 9 9 8 7 7 6 6 8 8 9 9 9 11 11 9 9 8 10 13 9 2 4 9 9 5 2 6 9 9
6 6 5 6 7 7 8 8 10 10 11 12 13 14 14 14 13 12 12 11 10 9 8 8 7 7 11 17 14 -1 -6 -1 4 8 8 9 11 11 11 10 10 9 9 8 8 10 10 10 9 9 9 9 10 10 10 9 9 10 9 8 8 6 6 7 7 8 9 9 8 11 13 10 10 12 12 10 7 3 1 5 10 11 9 7 6 9 13 11
6 6 5 6 7 7 7 7 8 8 9 9 10 10 11 11 11 12 13 12 13 12 11 11 12 10 7 10 17 15 8 3 3 6 7 8 10 10 10 10 10 9 9 9 9 9 8 8 9 8 7 8 9 9 9 9 9 8 7 8 7 9 13 9 6 10 10 8 8 13 15 13 17 18 10 7 9 7 3 3 7 8 7 6 6 8 8 5
6 6 5 6 7 7 7 6 6 6 6 6 6 6 6 6 6 7 9 10 11 11 11 12 13 13 11 9 10 15 16 14 11 9 7 8 9 10 11 9 9 9 9 8 7 7 7 7 7 7 7 7 6 9 9 7 8 7 8 8 5 13 19 9 8 12 8 6 9 13 13 14 23 21 6 3 10 12 8 4 7 9 8 6 5 5 4 5
6 6 6 6 6 7 7 6 6 5 4 5 4 4 4 3 3 3 4 5 6 7 6 7 9 12 13 11 10 10 11 13 14 12 11 9 8 8 9 9 9 9 8 7 6 6 5 5 5 6 5 5 6 7 6 5 7 5 6 9 11 16 10 1 8 11 4 5 10 15 17 13 10 7 1 7 19 19 11 6 7 8 6 8 6 5 8 7
6 6 6 5 6 6 7 6 5 5 4 4 4 3 3 2 2 2 2 3 3 3 3 3 4 5 8 11 12 12 9 9 10 10 10 9 8 8 9 10 9 9 8 6 6 5 6 6 6 5 5 7 7 4 5 7 6 5 8 11 17 22 12 7 15 9 0 6 9 10 16 10 -0 -0 -1 9 26 22 11 8 6 5 4 7 7 6 8 6
7 6 6 6 6 6 7 7 5 5 4 3 3 2 3 2 1 2 1 2 2 1 1 3 4 2 5 6 6 10 11 11 10 9 10 8 8 8 8 8 8 8 7 6 7 7 7 6 6 6 5 4 3 5 6 5 10 16 12 5 4 4 0 5 12 7 2 8 10 10 14 8 -1 5 5 5 13 6 4 12 9 5 6 5 5 7 7 7
7 6 7 6 6 6 7 7 5 5 4 3 3 2 2 1 1 2 1 2 3 3 3 3 4 3 4 4 2 4 6 8 10 9 9 8 8 7 6 6 7 8 7 7 7 6 7 7 6 4 2 4 5 6 7 10 21 23 15 15 9 0 7 9 1 -0 8 12 10 10 17 13 -3 -8 -6 -2 9 9 2 4 4 4 9 9 6 9 9 7
8 6 8 7 7 7 6 7 6 5 4 3 3 2 2 2 2 3 3 4 4 5 5 4 4 4 3 4 4 5 3 4 6 6 7 7 7 8 7 8 8 8 8 7 7 7 8 6 5 5 6 11 7 7 11 2 0 2 3 13 9 3 18 19 -0 -4 10 16 9 6 13 16 8 -0 1 2 8 15 9 3 8 11 12 9 4 9 11 6
9 7 8 8 7 8 7 7 6 5 5 3 3 4 4 4 6 7 8 9 8 8 8 6 5 6 4 2 3 6 5 4 2 2 4 4 5 6 6 7 7 8 8 7 8 8 8 6 7 10 10 11 4 7 6 -23 -24 -1 0 2 2 -3 -1 -1 -1 1 7 13 9 7 10 11 12 9 8 5 2 8 9 7 10 12 9 4 5 10 11 9
8 7 8 9 8 8 8 7 6 5 5 4 3 4 4 5 7 9 11 13 13 13 15 13 11 9 8 7 9 9 8 7 5 3 3 2 3 3 4 5 5 8 9 6 6 7 9 7 9 11 10 8 2 3 2 -15 -4 15 4 1 6 7 8 2 7 13 10 14 12 8 10 11 11 7 4 6 11 18 17 8 1 1 4 5 11 13 9 11
7 7 7 8 8 9 9 7 7 5 4 4 3 4 4 5 8 8 10 13 14 15 15 16 17 15 14 14 12 9 8 10 9 7 4 2 3 4 5 6 5 6 5 4 7 8 8 7 10 12 6 2 2 4 7 5 10 8 1 9 7 8 16 0 -1 14 10 10 14 9 7 8 5 10 14 -2 -14 1 14 10 3 4 7 10 16 11 6 12
7 7 6 7 7 9 10 8 7 6 5 4 3 3 3 4 8 11 13 14 14 14 14 14 16 15 15 16 13 12 14 15 14 13 10 8 7 7 7 9 10 8 6 6 9 9 8 9 10 8 1 1 9 10 7 5 7 6 6 10 7 8 13 0 -0 13 12 13 17 9 5 8 2 6 22 8 -18 -6 14 15 11 9 7 10 13 8 10 16
6 7 7 7 6 7 8 8 8 6 5 4 3 2 3 6 10 14 16 15 14 14 14 13 14 13 13 14 14 15 16 13 12 14 15 14 12 12 13 13 11 8 8 9 9 8 7 8 5 3 5 11 13 6 4 7 8 9 5 4 9 7 6 9 5 -1 6 20 21 11 5 8 8 8 15 13 0 3 11 9 11 12 8 9 7 7 13 13
6 7 8 9 9 7 5 5 5 5 4 4 4 3 5 9 12 14 15 14 14 13 13 12 12 12 11 13 13 13 14 13 12 13 15 14 11 12 13 12 10 7 9 10 8 9 8 5 6 7 9 10 8 5 9 13 9 6 7 10 11 -3 -16 -5 3 -1 7 17 14 14 13 5 10 21 21 19 18 17 17 11 10 11 9 9 8 8 11 9
8 8 9 9 10 9 7 5 3 3 4 4 4 5 7 11 12 14 15 13 11 10 12 12 11 11 11 11 11 11 12 12 11 11 12 12 9 9 9 7 8 7 8 9 7 10 6 2 10 13 8 8 8 9 11 10 10 9 9 7 8 5 -5 -2 9 9 8 12 9 9 19 14 8 17 21 22 20 15 18 19 13 11 8 8 9 7 11 15
8 7 8 8 8 8 7 7 6 4 5 6 7 8 9 12 12 12 15 13 9 8 11 12 9 10 12 11 10 9 9 11 11 9 10 12 9 8 8 6 8 6 6 6 4 8 3 -1 13 15 7 10 10 11 11 9 13 13 7 3 6 13 11 8 12 11 8 14 8 1 11 14 5 4 6 9 8 3 11 18 14 13 9 9 10 5 9 15
8 7 8 9 8 9 8 9 9 7 8 9 9 10 11 12 12 12 15 10 5 6 11 13 11 9 9 11 11 8 7 11 12 10 9 10 8 8 8 7 9 8 6 7 6 11 10 2 8 9 6 10 8 7 7 7 15 11 -1 4 11 11 9 9 12 13 13 12 5 2 5 6 8 6 3 7 8 9 16 15 14 16 10 9 11 5 8 12
9 9 10 11 10 11 11 10 10 8 10 9 10 12 11 11 12 12 12 8 6 9 10 12 13 11 8 9 12 10 9 8 6 9 13 11 8 9 9 6 9 8 4 8 7 7 14 11 6 6 6 7 5 7 7 8 14 5 -3 9 16 11 10 13 13 9 11 10 9 12 7 6 16 14 11 12 8 9 13 11 18 20 10 9 10 2 5 10
10 11 11 12 11 11 11 10 10 9 9 10 11 12 11 12 14 12 10 6 7 11 10 10 12 13 11 7 10 11 10 9 5 6 12 14 11 9 10 7 8 10 4 8 9 -4 -0 11 10 8 11 9 8 11 9 9 10 0 1 15 15 12 13 12 12 9 6 5 10 20 14 6 11 14 15 11 2 3 7 15 26 20 9 10 9 5 5 6
11 12 11 11 11 11 11 9 10 9 9 10 11 12 12 12 12 9 8 7 8 9 8 9 9 11 12 8 9 10 10 11 10 7 7 9 11 8 9 7 6 9 6 6 11 -0 -5 6 9 8 14 14 11 11 8 8 12 8 10 18 16 16 17 12 10 7 2 -1 5 20 24 11 4 8 13 7 -3 -8 -6 12 27 18 10 12 8 8 10 6
10 10 10 11 10 11 10 10 11 9 10 11 10 11 10 10 11 10 10 10 12 11 7 7 8 10 13 10 8 7 8 12 11 12 11 8 10 9 8 9 7 9 7 6 13 8 2 8 11 10 13 13 10 11 9 7 11 11 11 15 14 11 10 11 11 7 5 8 5 9 19 16 7 8 11 10 5 2 3 14 23 16 10 12 11 11 12 10
9 10 11 11 10 10 10 10 10 9 10 10 9 10 9 9 10 10 11 9 6 7 7 9 10 10 13 15 17 12 6 10 11 9 11 10 10 11 8 8 9 10 8 8 15 14 9 10 11 9 10 12 13 9 7 9 12 13 14 18 17 6 3 9 15 10 5 11 14 9 6 3 2 8 10 9 11 11 10 12 15 13 8 10 16 16 16 16
10 11 11 11 10 10 10 9 9 9 9 9 9 9 8 10 11 10 13 11 5 6 9 11 11 12 13 9 16 20 10 8 13 10 10 11 9 10 10 7 7 9 6 3 8 12 13 12 13 14 13 12 13 11 8 9 13 14 14 18 16 5 1 5 14 16 10 13 19 14 8 6 5 9 9 10 17 16 8 9 13 10 9 17 24 26 26 25
11 11 10 11 10 9 9 8 9 9 8 9 9 9 10 11 13 11 9 10 11 10 9 11 9 12 16 5 1 15 16 8 12 12 10 12 12 10 11 10 7 10 10 4 2 5 9 11 13 15 14 11 12 11 8 8 12 14 13 14 10 3 4 2 2 9 7 6 12 9 9 14 11 10 10 10 18 19 10 10 12 9 12 20 23 25 25 25
11 11 10 10 9 9 9 7 9 9 8 10 8 11 11 6 7 7 4 8 14 13 11 15 16 12 16 18 11 10 11 7 9 13 10 8 11 11 10 11 9 9 11 9 5 3 2 7 14 12 9 14 16 11 9 9 8 9 15 18 8 -1 3 5 4 9 3 -4 0 2 6 10 9 12 16 14 15 16 15 14 12 11 14 14 14 18 18 17
11 11 9 10 8 8 9 7 9 8 8 10 8 10 10 5 7 9 10 11 12 14 13 11 20 20 8 16 28 20 11 7 6 10 12 10 11 11 10 10 10 9 10 8 8 10 5 2 9 9 4 10 14 9 10 11 6 3 8 18 17 6 2 -1 -2 5 7 2 -0 -0 5 6 6 13 17 18 14 8 11 16 11 11 13 7 6 11 11 11
10 10 8 9 8 7 9 8 10 10 9 11 10 10 10 11 13 12 12 13 9 14 14 -2 4 16 1 -3 17 25 20 13 7 8 11 12 13 14 13 13 12 12 12 7 2 8 10 2 1 6 7 10 11 8 8 10 10 6 -0 5 11 10 12 10 4 1 5 11 11 8 10 6 4 10 12 20 26 15 9 12 12 15 14 3 2 4 4 5
9 9 7 9 8 8 10 9 11 12 11 12 11 10 11 11 14 14 11 13 11 12 13 3 2 11 7 -4 -1 10 17 13 10 10 9 9 10 11 13 14 12 11 13 14 6 1 5 5 4 9 12 13 13 12 9 7 11 9 1 3 3 0 7 11 9 7 4 7 10 8 11 8 6 8 3 11 26 19 9 10 12 16 14 5 4 4 3 3
8 8 8 10 9 9 10 10 11 12 11 12 10 10 12 11 13 15 12 12 12 10 9 11 10 10 11 5 -3 2 14 12 9 9 8 8 8 7 11 12 12 11 10 13 13 6 5 3 3 7 9 10 11 13 12 8 12 13 4 4 4 -1 1 2 6 13 8 4 8 7 9 10 10 12 8 12 20 14 10 12 9 12 13 8 5 2 1 4
8 9 10 11 10 10 12 11 12 12 11 12 11 10 13 13 12 13 13 13 13 13 12 12 12 10 10 12 5 2 10 12 8 6 6 10 8 5 8 9 10 13 10 10 12 10 9 7 5 5 5 7 9 14 18 10 9 18 16 10 6 0 2 5 7 11 9 10 12 11 13 13 11 13 11 13 17 12 11 11 5 10 16 9 3 2 1 1
9 9 11 12 11 11 12 11 11 12 10 10 11 11 9 10 11 12 12 12 11 12 13 11 13 12 10 14 13 7 9 12 9 4 3 8 8 5 8 8 8 11 10 13 15 11 8 11 11 6 4 13 15 13 16 11 4 7 12 15 13 5 3 5 5 6 7 7 2 -1 3 6 10 14 11 13 20 14 9 8 3 10 26 22 4 1 4 -0
10 9 12 12 10 11 11 9 9 11 10 10 11 12 10 9 10 11 11 11 10 10 10 9 10 11 11 11 11 10 9 13 13 7 1 4 5 8 13 9 4 8 8 7 12 14 11 10 12 11 6 10 16 10 7 12 12 6 1 7 14 12 8 6 6 8 8 7 9 11 10 6 9 13 9 10 20 18 13 12 6 3 19 28 11 4 14 11
9 7 11 11 8 10 9 6 10 11 6 8 12 11 12 12 12 12 13 13 13 12 14 13 9 9 11 10 10 11 9 11 17 13 6 4 -1 3 17 17 7 7 8 3 4 10 12 10 10 12 6 -1 6 13 10 8 13 13 7 4 6 8 10 6 1 1 7 9 5 3 4 6 10 12 9 8 13 18 15 13 13 6 9 24 22 15 20 15
8 7 10 11 8 9 6 2 8 12 7 8 13 12 11 13 14 13 11 13 13 10 13 18 14 12 13 11 10 11 9 10 13 15 16 12 -1 -4 6 11 9 6 3 6 6 3 7 10 8 9 9 3 3 12 13 7 6 12 14 9 6 6 7 6 1 -0 10 14 -1 -10 -0 10 12 13 14 9 6 13 14 10 14 14 12 24 24 13 9 4
9 8 9 10 8 9 8 3 4 11 13 11 11 12 11 10 13 13 9 10 13 9 8 12 14 12 13 14 12 11 12 12 9 11 16 12 7 12 13 8 9 8 2 3 7 3 3 8 7 6 7 4 2 5 8 7 3 4 9 10 10 10 6 3 1 -2 2 10 8 5 6 6 7 12 16 13 6 8 12 9 11 13 14 22 20 8 3 0
8 9 9 10 9 8 9 9 6 6 12 13 9 10 12 10 11 12 10 9 11 11 9 8 10 10 9 11 12 10 12 14 10 9 11 5 -1 11 25 21 14 13 9 4 5 4 4 6 7 5 3 3 7 8 5 4 6 9 15 14 8 10 13 9 6 5 4 3 2 4 6 8 12 13 12 12 10 9 9 6 8 10 10 15 16 11 9 6
7 8 9 8 8 11 11 12 12 7 8 13 11 8 11 12 12 12 11 9 8 9 9 7 9 11 10 11 12 11 12 15 16 12 11 9 -4 -8 11 22 14 11 12 8 6 2 -3 5 12 8 6 9 9 8 3 2 8 10 8 10 9 10 15 13 8 8 7 1 -3 -2 -2 2 13 17 13 11 10 11 13 10 6 7 7 10 12 12 13 13
7 8 11 8 6 13 13 8 10 10 8 11 12 9 7 8 10 9 9 9 8 9 10 9 10 12 13 14 14 14 14 13 16 14 10 11 5 -3 5 14 11 13 14 8 10 7 -4 3 16 14 12 14 11 10 8 4 5 3 -5 -1 8 10 12 14 11 7 6 3 1 1 -5 -7 4 15 14 12 10 7 11 12 10 8 7 8 9 7 8 12
5 6 12 10 5 10 12 7 8 9 9 9 9 9 8 5 6 8 8 9 9 11 12 10 11 14 15 12 7 7 10 8 9 14 12 8 6 6 12 17 13 17 22 15 11 13 4 -2 5 11 11 12 11 11 11 5 3 6 5 5 8 7 5 10 12 9 9 6 0 2 7 7 8 6 1 6 11 8 8 11 13 13 11 8 9 9 5 6
6 9 11 8 6 10 10 8 9 8 9 10 8 9 10 8 8 10 11 12 10 12 14 9 6 10 11 8 3 0 3 5 6 11 13 12 9 4 4 12 12 11 21 19 8 13 17 7 4 11 9 8 11 9 7 8 9 10 9 5 6 8 5 4 6 7 8 7 3 2 6 8 9 7 4 5 7 6 8 9 10 15 17 11 8 8 8 6
9 10 9 5 7 11 9 8 10 7 9 11 9 10 11 10 11 11 10 13 13 13 16 13 8 8 8 8 8 5 3 5 6 9 13 14 16 9 -1 2 9 11 17 20 12 9 12 9 12 16 7 4 14 14 5 5 8 12 15 11 5 7 10 5 3 6 7 5 6 7 4 4 8 9 8 7 5 5 8 7 6 11 17 17 11 7 6 6
Height
5735 5736 5738 5739 5740 5742 5744 5745 5747 5748 5750 5751 5753 5754 5756 5757 5759 5760 5761 5762 5763 5764 5766 5767 5769 5770 5772 5773 5774 5776 5777 5779 5780 5782 5783 5785 5786 5787 5789 5790 5792 5793 5794 5795 5797 5798 5799 5800 5801 5802 5803 5804 5805 5806 5807 5808 5808 5810 5811 5812 5813 5815 5815 5814 5813 5814 5816 5813 5814 5817 5817 5818 5817 5817 5819 5819 5819 5819 5820 5820 5819 5817 5815 5816 5817 5819 5821 5822
5731 5732 5733 5735 5736 5738 5739 5741 5742 5744 5745 5747 5749 5750 5752 5754 5755 5756 5757 5758 5760 5761 5762 5763 5765 5766 5768 5769 5771 5772 5774 5775 5777 5778 5780 5781 5783 5784 5786 5787 5789 5790 5791 5792 5794 5795 5796 5797 5798 5799 5800 5801 5802 5803 5804 5805 5806 5807 5808 5810 5811 5811 5810 5810 5811 5812 5813 5812 5812 5814 5814 5815 5815 5815 5817 5817 5817 5817 5818 5817 5815 5814 5814 5814 5814 5816 5817 5818
5727 5728 5729 5731 5732 5734 5735 5736 5738 5740 5741 5743 5745 5747 5748 5750 5751 5753 5754 5755 5756 5757 5759 5760 5761 5763 5764 5766 5767 5769 5771 5772 5773 5775 5777 5778 5780 5781 5783 5784 5786 5787 5789 5790 5791 5792 5793 5794 5795 5796 5797 5798 5799 5800 5801 5802 5803 5804 5805 5807 5807 5806 5807 5808 5809 5810 5810 5810 5810 5811 5812 5813 5812 5813 5815 5815 5815 5816 5815 5813 5813 5813 5813 5811 5811 5813 5814 5815
5723 5724 5726 5727 5728 5730 5731 5732 5734 5735 5737 5739 5741 5743 5745 5746 5748 5749 5750 5751 5753 5754 5755 5756 5758 5759 5761 5762 5764 5766 5767 5768 5770 5772 5774 5775 5777 5779 5780 5782 5783 5784 5786 5787 5788 5789 5790 5791 5792 5794 5795 5796 5796 5797 5798 5799 5800 5801 5803 5803 5802 5803 5805 5806 5806 5807 5808 5808 5808 5808 5810 5810 5809 5810 5812 5812 5813 5815 5812 5810 5811 5811 5810 5809 5809 5811 5812 5813
5719 5721 5722 5723 5725 5726 5727 5729 5730 5732 5733 5735 5737 5739 5741 5743 5744 5745 5746 5748 5749 5750 5752 5753 5755 5756 5758 5759 5760 5762 5764 5764 5767 5769 5770 5772 5774 5776 5777 5779 5780 5782 5783 5784 5785 5786 5787 5788 5790 5791 5792 5793 5794 5795 5795 5796 5798 5798 5800 5800 5800 5802 5803 5803 5804 5805 5805 5805 5805 5806 5806 5806 5806 5808 5808 5809 5811 5810 5806 5807 5810 5809 5807 5807 5807 5809 5810 5811
5716 5717 5718 5720 5721 5722 5724 5725 5727 5728 5730 5732 5734 5736 5737 5739 5740 5742 5743 5744 5746 5747 5749 5750 5752 5753 5755 5756 5757 5759 5760 5761 5765 5766 5767 5769 5771 5773 5774 5776 5778 5779 5780 5782 5783 5784 5785 5786 5787 5788 5789 5790 5791 5792 5793 5794 5795 5796 5797 5797 5798 5799 5799 5800 5802 5801 5802 5802 5802 5803 5803 5803 5804 5805 5804 5805 5806 5804 5804 5806 5808 5807 5805 5805 5806 5807 5808 5809
5712 5713 5715 5716 5718 5719 5720 5722 5723 5725 5727 5728 5730 5732 5734 5735 5737 5738 5740 5741 5743 5744 5746 5747 5749 5750 5752 5753 5754 5756 5757 5759 5762 5763 5764 5766 5768 5770 5771 5773 5775 5776 5778 5779 5780 5781 5782 5783 5784 5785 5786 5787 5789 5790 5790 5791 5792 5793 5794 5794 5795 5796 5797 5798 5799 5799 5799 5799 5799 5800 5800 5801 5801 5801 5801 5802 5802 5802 5804 5804 5804 5804 5803 5803 5804 5804 5804 5806
5709 5710 5712 5713 5715 5716 5717 5719 5720 5722 5724 5725 5727 5729 5731 5732 5734 5735 5736 5738 5739 5741 5742 5744 5746 5747 5749 5750 5752 5753 5754 5757 5759 5760 5762 5764 5765 5767 5769 5770 5772 5773 5775 5776 5778 5779 5780 5781 5782 5783 5784 5785 5786 5787 5788 5789 5789 5790 5791 5791 5792 5793 5794 5795 5796 5796 5796 5796 5796 5797 5797 5798 5798 5798 5798 5799 5798 5800 5803 5802 5801 5801 5800 5800 5800 5801 5802 5803
5705 5706 5708 5710 5711 5713 5714 5716 5717 5719 5721 5722 5724 5726 5728 5729 5731 5732 5733 5734 5736 5738 5739 5741 5743 5744 5746 5747 5749 5750 5752 5754 5756 5757 5759 5761 5763 5765 5766 5768 5769 5771 5772 5773 5775 5776 5777 5778 5779 5780 5781 5782 5784 5784 5785 5786 5786 5787 5788 5789 5790 5791 5792 5792 5793 5793 5794 5794 5794 5794 5794 5795 5794 5795 5796 5795 5796 5799 5800 5799 5798 5798 5797 5798 5799 5799 5800 5801
5701 5703 5705 5707 5708 5710 5711 5713 5715 5716 5718 5720 5722 5724 5725 5727 5728 5729 5730 5731 5733 5735 5736 5738 5740 5741 5743 5745 5746 5748 5751 5752 5753 5755 5756 5758 5760 5762 5764 5766 5767 5768 5770 5771 5773 5774 5775 5776 5777 5778 5779 5780 5781 5782 5782 5783 5784 5785 5786 5787 5788 5789 5789 5790 5791 5791 5792 5792 5792 5792 5791 5792 5792 5793 5793 5792 5794 5797 5797 5796 5795 5796 5796 5797 5797 5797 5798 5799
5697 5699 5701 5703 5705 5707 5709 5710 5712 5713 5715 5717 5719 5721 5722 5724 5725 5726 5727 5729 5730 5732 5734 5736 5737 5739 5740 5742 5744 5746 5749 5749 5751 5753 5754 5756 5757 5759 5761 5763 5764 5766 5767 5769 5770 5772 5773 5774 5775 5776 5776 5777 5779 5779 5780 5780 5782 5783 5783 5784 5785 5786 5787 5788 5788 5788 5789 5789 5789 5789 5788 5789 5789 5791 5791 5789 5793 5794 5794 5793 5792 5794 5794 5794 5794 5794 5796 5797
5693 5696 5698 5700 5702 5704 5706 5708 5709 5710 5712 5714 5716 5718 5720 5721 5722 5723 5725 5726 5727 5729 5731 5733 5735 5736 5738 5739 5741 5744 5746 5747 5749 5750 5751 5753 5754 5756 5758 5760 5762 5763 5765 5766 5768 5769 5771 5772 5773 5773 5774 5775 5776 5777 5778 5778 5780 5780 5781 5782 5783 5784 5785 5786 5786 5786 5787 5787 5787 5787 5787 5787 5786 5789 5788 5785 5790 5792 5791 5790 5790 5791 5792 5792 5792 5792 5794 5795
5690 5692 5694 5697 5699 5701 5703 5705 5706 5708 5709 5711 5713 5715 5717 5718 5719 5721 5722 5723 5725 5726 5728 5730 5732 5733 5735 5737 5739 5741 5742 5744 5746 5747 5749 5750 5752 5754 5755 5757 5759 5760 5762 5763 5765 5767 5768 5769 5770 5771 5772 5773 5773 5774 5776 5776 5777 5778 5779 5780 5781 5782 5782 5783 5784 5784 5785 5784 5784 5785 5785 5785 5785 5787 5785 5781 5787 5790 5789 5788 5788 5788 5789 5789 5790 5791 5793 5793
5686 5688 5690 5693 5695 5698 5700 5702 5704 5705 5707 5709 5711 5713 5714 5715 5716 5718 5719 5721 5722 5724 5726 5727 5729 5730 5732 5734 5736 5738 5739 5741 5743 5744 5746 5748 5749 5751 5752 5754 5756 5757 5759 5761 5762 5764 5765 5766 5767 5768 5769 5770 5771 5772 5773 5774 5775 5776 5777 5778 5779 5781 5780 5780 5783 5783 5781 5781 5782 5783 5783 5785 5787 5785 5779 5779 5785 5787 5787 5786 5786 5786 5786 5787 5788 5788 5790 5790
5682 5684 5687 5689 5692 5694 5697 5699 5701 5702 5704 5706 5708 5710 5711 5712 5714 5715 5717 5718 5720 5721 5723 5725 5726 5728 5729 5731 5733 5735 5736 5738 5740 5742 5744 5745 5746 5748 5749 5751 5753 5755 5757 5758 5759 5761 5762 5763 5765 5766 5767 5768 5769 5770 5771 5772 5773 5774 5776 5777 5778 5780 5778 5776 5780 5781 5778 5779 5781 5781 5782 5786 5789 5783 5776 5778 5782 5784 5785 5784 5783 5784 5784 5785 5786 5786 5787 5788
5678 5681 5683 5686 5688 5691 5693 5695 5697 5699 5701 5703 5705 5707 5708 5709 5711 5712 5714 5715 5717 5719 5721 5722 5723 5725 5726 5728 5731 5732 5734 5735 5737 5739 5740 5742 5743 5745 5747 5749 5751 5752 5754 5755 5757 5758 5760 5761 5762 5764 5765 5766 5767 5768 5769 5770 5771 5772 5774 5776 5777 5779 5778 5775 5777 5778 5776 5777 5779 5779 5780 5784 5787 5781 5775 5777 5780 5781 5783 5782 5780 5782 5782 5783 5784 5784 5785 5785
5674 5677 5680 5682 5685 5687 5690 5692 5694 5696 5698 5700 5702 5704 5705 5706 5708 5709 5711 5712 5714 5716 5718 5719 5721 5723 5724 5726 5728 5729 5731 5733 5734 5736 5738 5739 5741 5743 5745 5747 5748 5750 5751 5753 5754 5756 5757 5758 5760 5761 5762 5763 5764 5766 5767 5768 5770 5771 5771 5774 5776 5777 5777 5775 5773 5774 5775 5775 5776 5776 5778 5782 5784 5780 5774 5775 5779 5779 5780 5781 5779 5780 5781 5781 5782 5782 5783 5783
5670 5673 5676 5679 5681 5684 5686 5689 5691 5693 5695 5697 5699 5700 5702 5703 5705 5706 5708 5709 5711 5713 5715 5716 5718 5720 5721 5722 5724 5727 5729 5730 5731 5733 5735 5736 5738 5740 5742 5744 5745 5747 5748 5750 5751 5753 5754 5756 5757 5758 5759 5760 5762 5764 5765 5768 5770 5770 5770 5771 5773 5773 5774 5775 5771 5770 5773 5774 5773 5774 5775 5777 5779 5778 5773 5771 5775 5777 5778 5779 5777 5777 5779 5779 5780 5780 5780 5781
5667 5670 5673 5675 5678 5680 5683 5685 5688 5690 5692 5694 5695 5697 5699 5700 5701 5703 5704 5706 5708 5710 5711 5713 5715 5716 5717 5719 5722 5724 5726 5727 5729 5730 5732 5734 5735 5737 5739 5741 5743 5744 5745 5747 5748 5750 5751 5753 5754 5755 5756 5759 5760 5761 5764 5767 5767 5768 5769 5768 5770 5771 5772 5773 5769 5767 5770 5771 5771 5771 5772 5774 5774 5775 5774 5769 5770 5774 5775 5775 5775 5775 5775 5776 5777 5777 5778 5779
5663 5666 5669 5672 5674 5677 5679 5682 5684 5686 5689 5690 5692 5694 5695 5697 5698 5699 5701 5703 5704 5706 5707 5710 5712 5713 5713 5715 5718 5721 5723 5724 5725 5727 5729 5731 5732 5734 5736 5738 5740 5741 5743 5744 5745 5747 5748 5750 5751 5752 5755 5756 5757 5758 5761 5761 5760 5763 5765 5765 5767 5769 5770 5769 5765 5764 5767 5768 5768 5768 5769 5771 5771 5772 5774 5769 5765 5770 5773 5773 5774 5773 5774 5774 5774 5774 5776 5776
5660 5663 5666 5668 5671 5673 5676 5678 5681 5683 5685 5687 5689 5691 5692 5694 5695 5696 5699 5699 5701 5702 5704 5706 5708 5709 5709 5711 5715 5718 5719 5721 5722 5724 5726 5728 5730 5732 5733 5736 5737 5739 5741 5741 5742 5744 5746 5747 5748 5751 5752 5753 5753 5755 5756 5756 5757 5761 5761 5762 5764 5764 5767 5767 5762 5762 5764 5765 5765 5766 5766 5767 5768 5768 5771 5768 5762 5766 5771 5770 5772 5772 5772 5772 5772 5772 5773 5774
5657 5660 5662 5665 5668 5670 5672 5675 5677 5680 5682 5684 5686 5687 5689 5691 5692 5694 5695 5696 5697 5699 5700 5702 5704 5705 5705 5708 5711 5712 5714 5717 5719 5721 5723 5725 5727 5728 5730 5733 5734 5736 5737 5737 5739 5742 5743 5744 5746 5749 5748 5748 5750 5752 5753 5753 5756 5758 5758 5760 5761 5762 5765 5765 5760 5760 5761 5762 5762 5763 5763 5764 5765 5765 5768 5767 5761 5763 5768 5768 5770 5771 5770 5769 5770 5770 5771 5772
5653 5656 5659 5662 5664 5667 5669 5671 5674 5676 5678 5681 5683 5684 5686 5688 5689 5690 5692 5693 5693 5695 5697 5698 5700 5701 5702 5704 5706 5708 5711 5714 5716 5718 5720 5721 5723 5725 5727 5729 5731 5733 5733 5734 5737 5739 5740 5742 5744 5744 5743 5745 5748 5749 5750 5751 5752 5754 5755 5757 5758 5759 5762 5762 5759 5757 5757 5759 5760 5760 5760 5760 5762 5762 5764 5765 5760 5761 5765 5765 5767 5769 5767 5767 5768 5768 5768 5769
5650 5653 5656 5658 5661 5664 5666 5668 5670 5673 5675 5677 5679 5681 5683 5685 5686 5687 5689 5689 5690 5692 5694 5695 5697 5698 5698 5701 5703 5705 5708 5711 5712 5714 5717 5718 5719 5721 5724 5727 5728 5728 5729 5732 5735 5736 5738 5739 5739 5740 5741 5744 5746 5746 5747 5749 5750 5751 5752 5753 5755 5757 5759 5759 5756 5754 5754 5757 5758 5758 5758 5758 5759 5760 5761 5762 5760 5759 5762 5763 5764 5766 5766 5765 5764 5763 5766 5767
5646 5649 5652 5655 5658 5660 5663 5665 5667 5669 5672 5674 5676 5678 5680 5681 5683 5684 5686 5687 5687 5688 5691 5692 5694 5695 5696 5698 5700 5702 5705 5707 5709 5711 5713 5715 5715 5717 5721 5723 5724 5724 5727 5730 5731 5733 5735 5734 5735 5738 5740 5741 5742 5742 5745 5746 5747 5748 5749 5750 5752 5753 5754 5753 5752 5752 5753 5755 5756 5756 5756 5756 5757 5758 5758 5759 5759 5757 5758 5760 5761 5762 5763 5764 5762 5759 5761 5764
5643 5646 5649 5652 5654 5657 5660 5662 5664 5667 5669 5671 5673 5675 5677 5678 5680 5681 5683 5684 5684 5685 5688 5689 5691 5692 5694 5695 5697 5699 5702 5704 5706 5706 5710 5712 5712 5715 5717 5718 5721 5722 5725 5727 5728 5730 5731 5729 5732 5736 5736 5737 5739 5740 5742 5743 5745 5746 5747 5747 5747 5748 5749 5749 5750 5750 5751 5753 5754 5753 5753 5754 5757 5758 5756 5756 5757 5754 5754 5757 5758 5759 5760 5762 5761 5756 5757 5761
5640 5643 5646 5648 5651 5654 5656 5658 5661 5664 5665 5668 5670 5672 5673 5675 5677 5678 5680 5682 5680 5680 5685 5687 5687 5689 5691 5692 5695 5697 5698 5701 5703 5703 5707 5710 5710 5712 5714 5715 5718 5720 5722 5724 5724 5726 5727 5727 5731 5733 5733 5735 5736 5737 5739 5741 5742 5744 5744 5743 5744 5746 5746 5746 5747 5748 5749 5751 5751 5750 5751 5752 5754 5756 5754 5753 5754 5752 5752 5754 5755 5756 5757 5758 5760 5755 5754 5757
5637 5640 5643 5645 5648 5651 5653 5656 5658 5660 5662 5665 5667 5669 5670 5672 5674 5676 5678 5679 5677 5677 5682 5684 5685 5687 5689 5690 5692 5693 5695 5699 5701 5700 5704 5707 5706 5709 5711 5712 5715 5718 5719 5720 5721 5723 5724 5725 5728 5729 5730 5732 5733 5735 5736 5738 5739 5740 5740 5740 5742 5743 5743 5744 5745 5746 5747 5749 5749 5749 5749 5749 5750 5752 5752 5750 5750 5751 5750 5751 5751 5753 5754 5755 5757 5754 5751 5754
5635 5637 5640 5642 5645 5648 5650 5653 5655 5657 5659 5662 5664 5666 5667 5669 5671 5673 5675 5675 5674 5675 5679 5681 5682 5685 5686 5688 5689 5691 5694 5697 5696 5697 5701 5703 5704 5706 5709 5710 5713 5715 5715 5716 5720 5720 5720 5722 5724 5725 5727 5729 5730 5732 5733 5734 5737 5737 5736 5738 5740 5741 5741 5742 5743 5745 5746 5745 5745 5748 5747 5746 5747 5749 5751 5748 5747 5748 5748 5747 5749 5751 5752 5752 5754 5752 5747 5750
5632 5634 5637 5639 5642 5645 5648 5650 5652 5654 5656 5659 5661 5662 5665 5667 5669 5671 5672 5672 5673 5674 5676 5678 5680 5682 5684 5686 5687 5688 5691 5692 5693 5696 5699 5700 5702 5704 5706 5707 5709 5712 5711 5713 5717 5716 5715 5719 5721 5722 5724 5726 5727 5729 5730 5731 5734 5734 5734 5737 5738 5739 5739 5740 5741 5743 5743 5741 5742 5746 5746 5744 5744 5745 5747 5746 5744 5744 5745 5746 5747 5748 5749 5750 5751 5749 5745 5747
5629 5632 5634 5637 5639 5642 5645 5647 5649 5652 5653 5656 5658 5660 5662 5664 5666 5667 5668 5670 5671 5671 5673 5675 5676 5679 5682 5683 5684 5685 5688 5689 5692 5694 5695 5696 5698 5700 5702 5704 5706 5708 5708 5709 5712 5713 5713 5717 5719 5719 5722 5724 5725 5727 5728 5729 5731 5732 5733 5735 5736 5737 5737 5738 5739 5740 5739 5739 5741 5744 5744 5743 5742 5742 5742 5742 5741 5742 5744 5744 5745 5746 5747 5747 5748 5746 5744 5745
5627 5629 5632 5634 5637 5640 5642 5644 5647 5649 5651 5653 5655 5657 5659 5661 5663 5665 5666 5669 5669 5668 5670 5671 5673 5677 5679 5680 5681 5683 5685 5687 5689 5691 5692 5694 5696 5697 5700 5701 5703 5705 5706 5707 5710 5712 5712 5714 5716 5717 5719 5721 5722 5724 5725 5726 5729 5730 5731 5732 5733 5734 5735 5735 5737 5737 5736 5737 5740 5742 5742 5741 5740 5739 5738 5738 5739 5741 5742 5743 5743 5744 5744 5744 5745 5744 5743 5744
5625 5627 5630 5632 5635 5637 5640 5642 5644 5646 5648 5651 5652 5654 5657 5658 5661 5662 5664 5666 5665 5663 5666 5669 5671 5674 5676 5679 5680 5680 5683 5684 5686 5688 5690 5691 5693 5694 5697 5698 5700 5703 5705 5707 5709 5710 5710 5712 5713 5714 5716 5718 5720 5722 5723 5724 5726 5727 5728 5729 5731 5732 5733 5733 5734 5735 5735 5736 5737 5738 5738 5738 5737 5734 5733 5735 5737 5739 5740 5740 5741 5742 5741 5741 5742 5742 5742 5743
5623 5626 5628 5631 5633 5635 5637 5639 5642 5644 5646 5648 5650 5652 5654 5656 5658 5661 5662 5662 5660 5661 5665 5667 5669 5672 5674 5677 5677 5677 5680 5682 5683 5685 5687 5688 5690 5691 5693 5695 5696 5700 5703 5705 5706 5707 5708 5709 5710 5712 5714 5716 5718 5719 5720 5722 5723 5724 5725 5727 5728 5730 5731 5731 5732 5733 5733 5733 5734 5734 5733 5734 5733 5730 5730 5733 5735 5736 5737 5737 5738 5739 5739 5739 5739 5740 5740 5741
5622 5624 5626 5629 5631 5633 5635 5637 5639 5642 5644 5645 5647 5649 5651 5654 5656 5658 5658 5656 5657 5661 5663 5664 5667 5669 5672 5673 5673 5675 5678 5679 5681 5683 5684 5686 5687 5689 5691 5692 5694 5697 5700 5702 5703 5705 5706 5707 5708 5709 5711 5712 5715 5717 5718 5719 5721 5721 5722 5724 5725 5727 5728 5729 5730 5730 5730 5731 5731 5731 5731 5731 5730 5728 5728 5731 5732 5733 5734 5735 5736 5736 5737 5737 5737 5738 5739 5740
5620 5622 5625 5627 5629 5631 5633 5635 5637 5639 5641 5643 5645 5647 5649 5650 5652 5653 5653 5654 5657 5659 5661 5663 5665 5667 5669 5670 5671 5673 5676 5677 5678 5680 5682 5683 5685 5687 5689 5690 5691 5694 5697 5699 5701 5703 5704 5705 5706 5706 5707 5709 5712 5714 5715 5717 5719 5719 5720 5721 5723 5725 5726 5727 5727 5728 5728 5729 5729 5729 5729 5728 5726 5726 5726 5728 5730 5731 5731 5732 5733 5734 5735 5736 5736 5737 5738 5739
5618 5621 5623 5625 5627 5629 5631 5633 5635 5637 5639 5641 5642 5644 5645 5647 5648 5649 5651 5653 5655 5656 5659 5662 5662 5663 5667 5669 5670 5671 5674 5675 5676 5678 5680 5681 5683 5685 5687 5688 5689 5691 5694 5697 5699 5700 5702 5703 5703 5703 5705 5707 5709 5711 5712 5714 5715 5716 5718 5720 5722 5723 5724 5724 5725 5726 5726 5726 5727 5727 5727 5727 5724 5723 5724 5726 5727 5728 5729 5730 5730 5731 5733 5734 5735 5736 5737 5739
5617 5619 5621 5624 5626 5628 5629 5632 5633 5635 5637 5638 5640 5641 5643 5644 5645 5647 5649 5650 5652 5654 5656 5658 5658 5660 5664 5667 5669 5670 5671 5673 5674 5676 5678 5679 5681 5682 5684 5686 5687 5689 5692 5694 5696 5697 5698 5700 5700 5700 5703 5705 5706 5708 5709 5711 5712 5713 5715 5717 5718 5720 5721 5721 5722 5723 5723 5724 5724 5725 5726 5725 5721 5720 5723 5724 5725 5726 5727 5727 5728 5729 5731 5732 5733 5735 5736 5738
5615 5618 5620 5622 5624 5626 5628 5630 5631 5633 5635 5636 5638 5639 5640 5641 5643 5645 5646 5647 5649 5651 5653 5654 5655 5658 5661 5663 5665 5666 5667 5670 5672 5674 5676 5677 5678 5680 5681 5683 5684 5686 5688 5690 5692 5693 5695 5697 5698 5699 5701 5702 5703 5705 5707 5708 5710 5711 5712 5713 5715 5717 5718 5718 5719 5720 5721 5722 5722 5722 5723 5721 5718 5719 5721 5722 5723 5724 5724 5725 5726 5728 5729 5730 5732 5733 5734 5736
5614 5616 5618 5620 5622 5624 5626 5628 5630 5631 5633 5634 5635 5636 5638 5639 5641 5642 5643 5645 5647 5648 5649 5651 5653 5656 5658 5659 5661 5662 5664 5667 5669 5671 5673 5674 5675 5676 5677 5679 5681 5683 5685 5687 5689 5691 5692 5694 5695 5697 5698 5698 5699 5702 5705 5706 5707 5709 5710 5711 5713 5714 5715 5715 5716 5717 5718 5719 5719 5720 5719 5717 5718 5719 5719 5720 5721 5722 5722 5723 5725 5726 5727 5729 5731 5732 5733 5734
5613 5615 5617 5619 5621 5623 5624 5626 5628 5629 5631 5632 5633 5634 5636 5637 5638 5640 5641 5643 5644 5645 5647 5649 5651 5652 5654 5656 5659 5660 5661 5664 5667 5668 5669 5670 5672 5673 5674 5676 5679 5681 5682 5684 5686 5688 5689 5691 5693 5694 5695 5696 5698 5701 5703 5704 5704 5705 5707 5709 5711 5712 5713 5713 5713 5714 5716 5716 5716 5718 5716 5715 5717 5718 5717 5718 5719 5719 5721 5723 5724 5725 5726 5727 5729 5730 5731 5731
5612 5614 5616 5618 5620 5621 5623 5625 5626 5628 5629 5630 5631 5632 5633 5635 5636 5638 5639 5640 5642 5643 5645 5646 5648 5650 5652 5654 5656 5657 5659 5661 5663 5665 5666 5668 5669 5669 5670 5674 5676 5677 5679 5681 5683 5684 5686 5688 5690 5691 5692 5694 5696 5697 5698 5700 5701 5702 5704 5706 5708 5709 5710 5710 5711 5711 5712 5712 5714 5715 5714 5713 5715 5716 5716 5717 5718 5718 5720 5722 5722 5723 5724 5725 5726 5728 5730 5730
5611 5613 5615 5616 5618 5620 5622 5623 5625 5626 5627 5628 5629 5630 5632 5633 5634 5636 5637 5638 5640 5641 5642 5644 5645 5647 5649 5650 5653 5654 5656 5658 5660 5662 5664 5664 5665 5666 5667 5670 5673 5675 5677 5678 5679 5680 5681 5684 5686 5688 5690 5691 5692 5692 5694 5696 5698 5699 5701 5703 5705 5706 5706 5707 5708 5708 5708 5709 5711 5713 5711 5711 5713 5714 5715 5715 5716 5717 5719 5720 5721 5722 5722 5723 5724 5726 5728 5728
5611 5612 5613 5615 5617 5618 5620 5622 5623 5624 5625 5626 5627 5629 5630 5631 5633 5634 5635 5636 5637 5638 5640 5641 5643 5644 5646 5648 5650 5652 5653 5655 5657 5659 5661 5661 5662 5663 5665 5667 5669 5671 5673 5673 5674 5676 5679 5681 5683 5685 5687 5688 5688 5689 5691 5693 5694 5696 5698 5700 5701 5702 5703 5704 5704 5704 5706 5708 5710 5710 5708 5709 5711 5713 5713 5714 5714 5715 5717 5718 5719 5720 5721 5721 5723 5725 5726 5726
5610 5611 5612 5614 5615 5617 5619 5620 5621 5623 5624 5624 5626 5627 5628 5629 5631 5632 5632 5634 5635 5636 5637 5639 5640 5642 5643 5645 5647 5648 5650 5652 5654 5656 5658 5659 5659 5660 5662 5664 5665 5667 5669 5670 5672 5675 5677 5678 5680 5681 5683 5684 5685 5685 5686 5688 5691 5693 5695 5696 5697 5698 5700 5701 5702 5702 5704 5706 5707 5707 5706 5707 5710 5711 5711 5712 5713 5714 5715 5716 5717 5718 5719 5720 5721 5722 5723 5723
5608 5610 5611 5613 5614 5616 5618 5618 5620 5621 5622 5623 5624 5625 5626 5628 5629 5630 5631 5632 5633 5634 5635 5637 5638 5639 5640 5642 5643 5645 5647 5649 5651 5653 5655 5656 5656 5657 5659 5660 5661 5664 5667 5668 5669 5672 5673 5674 5676 5678 5678 5679 5681 5682 5683 5685 5688 5690 5691 5692 5693 5696 5698 5698 5699 5701 5702 5703 5704 5703 5703 5705 5708 5709 5709 5711 5712 5713 5714 5714 5715 5716 5717 5718 5719 5720 5720 5721
5607 5609 5610 5612 5613 5615 5616 5617 5619 5620 5620 5621 5623 5624 5625 5626 5627 5628 5629 5630 5631 5632 5633 5634 5636 5637 5638 5639 5641 5642 5644 5646 5648 5650 5652 5653 5653 5654 5654 5656 5658 5661 5663 5664 5665 5667 5668 5670 5672 5674 5675 5676 5678 5681 5683 5684 5686 5687 5687 5688 5690 5693 5695 5695 5697 5698 5698 5699 5700 5700 5701 5704 5706 5707 5708 5709 5710 5711 5712 5713 5714 5714 5715 5716 5717 5718 5719 5720
5606 5607 5609 5611 5612 5614 5615 5616 5617 5618 5619 5620 5621 5622 5623 5624 5626 5627 5627 5628 5629 5630 5631 5632 5633 5634 5635 5636 5638 5639 5641 5642 5644 5646 5648 5649 5650 5650 5650 5652 5655 5657 5658 5660 5662 5663 5665 5667 5669 5671 5672 5673 5675 5678 5680 5682 5683 5684 5684 5685 5687 5689 5691 5692 5693 5693 5694 5696 5697 5697 5699 5703 5704 5705 5706 5707 5709 5710 5710 5712 5712 5713 5713 5714 5715 5716 5717 5718
5605 5606 5608 5610 5611 5612 5614 5615 5616 5617 5618 5619 5620 5621 5622 5623 5624 5625 5625 5626 5627 5628 5629 5630 5631 5632 5633 5634 5635 5637 5638 5639 5640 5642 5644 5645 5646 5646 5646 5648 5651 5653 5655 5657 5659 5661 5663 5665 5667 5668 5669 5670 5672 5675 5677 5679 5679 5680 5681 5682 5684 5686 5687 5688 5689 5690 5691 5693 5693 5693 5697 5701 5703 5704 5705 5706 5707 5708 5709 5710 5711 5711 5712 5713 5714 5715 5716 5717
5603 5605 5607 5609 5610 5612 5613 5614 5615 5616 5617 5618 5618 5619 5620 5621 5621 5622 5623 5624 5625 5625 5626 5628 5629 5630 5631 5632 5633 5634 5634 5635 5637 5639 5640 5642 5643 5643 5644 5646 5647 5648 5651 5654 5656 5658 5660 5661 5663 5665 5666 5667 5669 5671 5673 5674 5675 5676 5677 5679 5681 5683 5684 5685 5686 5688 5688 5689 5689 5692 5695 5698 5700 5701 5702 5703 5705 5706 5707 5708 5709 5710 5710 5711 5712 5713 5714 5715
5603 5605 5606 5608 5609 5611 5612 5613 5614 5615 5615 5616 5617 5618 5618 5619 5620 5620 5621 5622 5623 5623 5624 5625 5626 5627 5628 5629 5630 5630 5631 5632 5634 5636 5637 5638 5639 5640 5641 5643 5643 5645 5648 5650 5652 5654 5655 5657 5660 5662 5662 5664 5667 5668 5669 5671 5671 5672 5673 5676 5678 5679 5681 5683 5685 5686 5685 5685 5687 5690 5693 5696 5698 5699 5700 5702 5703 5704 5705 5706 5707 5708 5708 5709 5710 5711 5712 5713
5602 5604 5605 5606 5608 5610 5611 5612 5613 5614 5615 5615 5616 5616 5617 5617 5618 5618 5619 5620 5620 5621 5622 5623 5624 5625 5625 5626 5626 5627 5628 5630 5631 5632 5634 5634 5635 5637 5638 5639 5640 5642 5644 5646 5648 5650 5652 5654 5657 5659 5659 5660 5663 5665 5666 5667 5668 5667 5669 5673 5675 5676 5678 5680 5682 5683 5683 5682 5684 5687 5691 5694 5695 5696 5698 5700 5701 5702 5703 5704 5705 5706 5707 5708 5709 5709 5710 5711